OneWeb SL0179

operational
NORAD ID: 48212 Int'l Des: 2021-031 Owner: ONEWEBN Country: UK Constellation: oneweb
LEOCIRCULARPOLARONEWEB_TYPE

OneWeb SL0179について

説明を読み込み中...

リアルタイム位置

3D地球を読み込み中...

次回通過

高度履歴

Altitude vs Time

uPlot chart will show altitude changes over time

軌道要素

1 48212U 21031C 25352.49519544 -.00000164 00000-0 -47721-3 0 9999
2 48212 87.9003 325.6896 0001577 88.2497 271.8814 13.14502753224597
Epoch: Dec 18, 2025 • Age: 10 hours

現在のステータス

高度 1234.3 km
速度 7.24 km/s
衛星直下点 -74.66°S, 90.81°E
打ち上げ日 Apr 25, 2021
運用期間 4.6 years
タイプ internet

技術仕様

分類 Payload
質量 148.00 kg
乾燥質量 140.00 kg
総質量 148.00 kg
長さ 1.30 m
直径 1.00 m
スパン 5.00 m
形状 Trapezoid+2 pan
製造者 ONEWUS
バスタイプ ARROW
フェーズステータス In Orbit
所有者/国 ONEWEBN/UK

大規模コンステレーション

Loading constellations...